When you browse on this site, cookies collect data to enhance your experience and personalize the content and advertising you see.
Visit our Privacy Policy to learn more. By continuing to use the site, you agree to this use of cookies and data.
  • In Czech Republic
  • List of Countries
  • For 7 days
  • Water Temperature
  • Satellite Maps
  • Weather Map
  • Weather Widgets
  • user-avatar
    Login

    Hourly Weather Milpitas

    Today, 18 April, Thursday

    Time Temperature Precipitation Wind Pressure Humidity
    00:00 +14°C° 0 mm 0 mps 765 mmHg 69%
    01:00 +14°C° 0 mm 0 mps 765 mmHg 67%
    02:00 +14°C° 0 mm 0 mps 765 mmHg 66%
    03:00 +14°C° 0 mm 0 mps 765 mmHg 66%
    04:00 +14°C° 0 mm 0 mps 765 mmHg 65%
    05:00 +16°C° 0 mm 1 mps 764 mmHg 63%
    06:00 +18°C° 0 mm 1 mps 764 mmHg 60%
    07:00 +19°C° 0 mm 1 mps 764 mmHg 58%
    08:00 +22°C° 0 mm 1 mps 764 mmHg 51%
    09:00 +24°C° 0 mm 1 mps 764 mmHg 45%
    10:00 +27°C° 0 mm 1 mps 764 mmHg 38%
    11:00 +29°C° 0 mm 1 mps 764 mmHg 36%
    12:00 +30°C° 0 mm 1 mps 764 mmHg 33%
    13:00 +32°C° 0 mm 1 mps 763 mmHg 30%
    14:00 +31°C° 0 mm 1 mps 763 mmHg 32%
    15:00 +31°C° 0 mm 1 mps 762 mmHg 33%
    16:00 +30°C° 0 mm 2 mps 762 mmHg 34%
    17:00 +28°C° 0 mm 1 mps 762 mmHg 42%
    18:00 +25°C° 0 mm 1 mps 762 mmHg 50%
    19:00 +23°C° 0 mm 1 mps 762 mmHg 58%
    20:00 +22°C° 0 mm 1 mps 762 mmHg 61%
    21:00 +19°C° 0 mm 0 mps 762 mmHg 64%
    22:00 +18°C° 0 mm 0 mps 762 mmHg 67%
    23:00 +18°C° 0 mm 0 mps 762 mmHg 68%

    Tomorrow, 19 April, Friday

    Time Temperature Precipitation Wind Pressure Humidity
    00:00 +18°C° 0 mm 0 mps 762 mmHg 68%
    01:00 +17°C° 0 mm 0 mps 762 mmHg 69%
    02:00 +17°C° 0 mm 0 mps 761 mmHg 70%
    03:00 +17°C° 0 mm 0 mps 761 mmHg 70%
    04:00 +16°C° 0 mm 0 mps 761 mmHg 71%
    05:00 +17°C° 0 mm 0 mps 760 mmHg 68%
    06:00 +18°C° 0 mm 0 mps 760 mmHg 65%
    07:00 +19°C° 0 mm 0 mps 760 mmHg 63%
    08:00 +22°C° 0 mm 0 mps 760 mmHg 55%
    09:00 +24°C° 0 mm 0 mps 760 mmHg 47%
    10:00 +27°C° 0 mm 0 mps 760 mmHg 39%
    11:00 +30°C° 0 mm 1 mps 760 mmHg 37%
    12:00 +30°C° 0 mm 2 mps 759 mmHg 34%
    13:00 +31°C° 0 mm 2 mps 759 mmHg 31%
    14:00 +30°C° 0 mm 2 mps 758 mmHg 33%
    15:00 +29°C° 0 mm 3 mps 758 mmHg 35%
    16:00 +28°C° 0 mm 3 mps 758 mmHg 37%
    17:00 +26°C° 0 mm 3 mps 757 mmHg 45%
    18:00 +23°C° 0 mm 2 mps 757 mmHg 53%
    19:00 +20°C° 0 mm 2 mps 757 mmHg 61%
    20:00 +20°C° 0 mm 1 mps 758 mmHg 66%
    21:00 +19°C° 0 mm 1 mps 758 mmHg 72%
    22:00 +18°C° 0 mm 1 mps 758 mmHg 77%
    23:00 +16°C° 0 mm 1 mps 758 mmHg 78%

    Day after tomorrow, 20 April, Saturday

    Time Temperature Precipitation Wind Pressure Humidity
    00:00 +16°C° 0 mm 1 mps 758 mmHg 80%
    01:00 +15°C° 0 mm 1 mps 757 mmHg 81%
    02:00 +15°C° 0 mm 2 mps 757 mmHg 83%
    03:00 +15°C° 0 mm 2 mps 757 mmHg 86%
    04:00 +14°C° 0 mm 2 mps 757 mmHg 88%
    05:00 +15°C° 0 mm 2 mps 757 mmHg 86%
    06:00 +15°C° 0 mm 2 mps 758 mmHg 84%
    07:00 +15°C° 0 mm 2 mps 758 mmHg 82%
    08:00 +16°C° 0 mm 3 mps 758 mmHg 80%
    09:00 +16°C° 0 mm 3 mps 758 mmHg 77%
    10:00 +16°C° 0 mm 3 mps 759 mmHg 74%
    11:00 +16°C° 0 mm 3 mps 759 mmHg 73%
    12:00 +15°C° 0 mm 4 mps 759 mmHg 72%
    13:00 +15°C° 0 mm 4 mps 759 mmHg 71%
    14:00 +15°C° 0 mm 4 mps 758 mmHg 72%
    15:00 +14°C° 0 mm 4 mps 758 mmHg 73%
    16:00 +14°C° 0 mm 4 mps 758 mmHg 74%
    17:00 +13°C° 0 mm 4 mps 758 mmHg 75%
    18:00 +12°C° 0 mm 4 mps 759 mmHg 77%
    19:00 +12°C° 0 mm 3 mps 759 mmHg 78%
    20:00 +12°C° 0 mm 3 mps 759 mmHg 79%
    21:00 +11°C° 0 mm 3 mps 760 mmHg 80%
    22:00 +12°C° 0 mm 2 mps 760 mmHg 81%
    23:00 +12°C° 0 mm 2 mps 760 mmHg 83%

    21 April, Sunday

    Time Temperature Precipitation Wind Pressure Humidity
    00:00 +12°C° 0 mm 1 mps 760 mmHg 85%
    01:00 +11°C° 0 mm 1 mps 760 mmHg 87%
    02:00 +11°C° 0 mm 1 mps 761 mmHg 88%
    03:00 +11°C° 0 mm 1 mps 761 mmHg 89%
    04:00 +11°C° 0 mm 1 mps 761 mmHg 89%
    05:00 +12°C° 0 mm 1 mps 761 mmHg 86%
    06:00 +13°C° 0 mm 1 mps 762 mmHg 82%
    07:00 +13°C° 0 mm 0 mps 762 mmHg 79%
    08:00 +16°C° 0 mm 1 mps 762 mmHg 69%
    09:00 +18°C° 0 mm 2 mps 762 mmHg 60%
    10:00 +21°C° 0 mm 2 mps 763 mmHg 50%
    11:00 +22°C° 0 mm 3 mps 762 mmHg 46%
    12:00 +24°C° 0 mm 3 mps 762 mmHg 42%
    13:00 +25°C° 0 mm 3 mps 762 mmHg 38%
    14:00 +25°C° 0 mm 3 mps 762 mmHg 41%
    15:00 +24°C° 0 mm 3 mps 762 mmHg 45%
    16:00 +24°C° 0 mm 3 mps 761 mmHg 48%
    17:00 +21°C° 0 mm 3 mps 761 mmHg 56%
    18:00 +19°C° 0 mm 2 mps 762 mmHg 64%
    19:00 +17°C° 0 mm 2 mps 762 mmHg 72%
    20:00 +16°C° 0 mm 1 mps 762 mmHg 75%
    21:00 +15°C° 0 mm 1 mps 763 mmHg 77%
    22:00 +14°C° 0 mm 1 mps 763 mmHg 79%
    23:00 +14°C° 0 mm 1 mps 763 mmHg 80%

    22 April, Monday

    Time Temperature Precipitation Wind Pressure Humidity
    00:00 +14°C° 0 mm 1 mps 763 mmHg 80%
    01:00 +13°C° 0 mm 1 mps 763 mmHg 81%
    02:00 +13°C° 0 mm 1 mps 763 mmHg 81%
    03:00 +13°C° 0 mm 1 mps 763 mmHg 81%
    04:00 +13°C° 0 mm 1 mps 763 mmHg 82%
    05:00 +14°C° 0 mm 1 mps 763 mmHg 78%
    06:00 +14°C° 0 mm 0 mps 763 mmHg 74%
    07:00 +15°C° 0 mm 0 mps 764 mmHg 70%
    08:00 +19°C° 0 mm 1 mps 764 mmHg 62%
    09:00 +22°C° 0 mm 1 mps 764 mmHg 53%
    10:00 +25°C° 0 mm 1 mps 764 mmHg 45%
    11:00 +26°C° 0 mm 2 mps 763 mmHg 41%
    12:00 +27°C° 0 mm 3 mps 763 mmHg 36%
    13:00 +28°C° 0 mm 3 mps 762 mmHg 32%
    14:00 +27°C° 0 mm 3 mps 762 mmHg 33%
    15:00 +27°C° 0 mm 3 mps 762 mmHg 35%
    16:00 +27°C° 0 mm 3 mps 761 mmHg 36%
    17:00 +24°C° 0 mm 3 mps 762 mmHg 43%
    18:00 +21°C° 0 mm 2 mps 762 mmHg 50%
    19:00 +20°C° 0 mm 1 mps 762 mmHg 56%
    20:00 +19°C° 0 mm 1 mps 762 mmHg 58%
    21:00 +18°C° 0 mm 1 mps 762 mmHg 59%
    22:00 +18°C° 0 mm 1 mps 762 mmHg 61%
    23:00 +15°C° 0 mm 0 mps 762 mmHg 61%

    23 April, Tuesday

    Time Temperature Precipitation Wind Pressure Humidity
    00:00 +15°C° 0 mm 0 mps 762 mmHg 62%
    01:00 +15°C° 0 mm 0 mps 761 mmHg 63%
    02:00 +15°C° 0 mm 0 mps 761 mmHg 64%
    03:00 +14°C° 0 mm 0 mps 761 mmHg 64%
    04:00 +14°C° 0 mm 0 mps 761 mmHg 65%
    05:00 +16°C° 0 mm 0 mps 762 mmHg 63%
    06:00 +19°C° 0 mm 1 mps 762 mmHg 60%
    07:00 +20°C° 0 mm 1 mps 762 mmHg 58%
    08:00 +23°C° 0 mm 1 mps 762 mmHg 49%
    09:00 +25°C° 0 mm 1 mps 762 mmHg 40%
    10:00 +28°C° 0 mm 1 mps 762 mmHg 31%
    11:00 +29°C° 0 mm 2 mps 762 mmHg 29%
    12:00 +30°C° 0 mm 2 mps 761 mmHg 26%
    13:00 +32°C° 0 mm 2 mps 761 mmHg 23%
    14:00 +31°C° 0 mm 2 mps 761 mmHg 25%
    15:00 +31°C° 0 mm 2 mps 760 mmHg 26%
    16:00 +31°C° 0 mm 2 mps 760 mmHg 27%
    17:00 +29°C° 0 mm 2 mps 760 mmHg 33%
    18:00 +26°C° 0 mm 2 mps 761 mmHg 40%
    19:00 +24°C° 0 mm 1 mps 761 mmHg 46%
    20:00 +23°C° 0 mm 1 mps 761 mmHg 48%
    21:00 +22°C° 0 mm 1 mps 761 mmHg 51%
    22:00 +19°C° 0 mm 0 mps 761 mmHg 53%
    23:00 +19°C° 0 mm 0 mps 761 mmHg 54%
    Show more